Time,TemperatureF,DewpointF,PressureIn,WindDirection,WindDirectionDegrees,WindSpeedMPH,WindSpeedGustMPH,Humidity,HourlyPrecipIn,Conditions,Clouds,dailyrainin,SoftwareType,DateUTC
2013-05-01 00:01:00,66.7,65.8,29.87,ENE,76,3.0,7.0,97,0.01,,,0.56,meteohub,2013-05-01 05:01:00,
2013-05-01 00:06:00,66.7,65.8,29.87,East,92,2.0,7.0,97,0.03,,,0.02,meteohub,2013-05-01 05:06:00,
2013-05-01 00:12:00,66.6,65.7,29.86,ENE,78,0.0,7.0,97,0.05,,,0.04,meteohub,2013-05-01 05:12:00,
2013-05-01 00:17:00,66.6,66.0,29.86,ENE,78,0.0,5.0,98,0.08,,,0.07,meteohub,2013-05-01 05:17:00,
2013-05-01 00:22:00,66.6,66.0,29.86,ENE,78,0.0,3.0,98,0.09,,,0.08,meteohub,2013-05-01 05:22:00,
2013-05-01 00:27:00,66.6,66.0,29.86,ENE,78,0.0,2.0,98,0.09,,,0.08,meteohub,2013-05-01 05:27:00,
2013-05-01 00:32:00,66.4,65.8,29.86,ENE,76,2.0,2.0,98,0.09,,,0.08,meteohub,2013-05-01 05:32:00,
2013-05-01 00:37:00,66.4,65.8,29.86,East,82,0.0,2.0,98,0.09,,,0.08,meteohub,2013-05-01 05:37:00,
2013-05-01 00:42:00,66.4,65.8,29.86,East,92,2.0,3.0,98,0.09,,,0.08,meteohub,2013-05-01 05:42:00,
2013-05-01 00:47:00,66.4,65.8,29.86,East,92,0.0,3.0,98,0.09,,,0.08,meteohub,2013-05-01 05:47:00,
2013-05-01 00:52:00,66.4,65.8,29.86,East,92,0.0,3.0,98,0.09,,,0.08,meteohub,2013-05-01 05:52:00,
2013-05-01 00:57:00,66.4,65.8,29.86,East,92,0.0,3.0,98,0.09,,,0.08,meteohub,2013-05-01 05:57:00,
2013-05-01 01:02:00,66.4,65.8,29.85,East,92,0.0,2.0,98,0.08,,,0.08,meteohub,2013-05-01 06:02:00,
2013-05-01 01:07:00,66.4,66.0,29.85,East,92,0.0,2.0,99,0.06,,,0.08,meteohub,2013-05-01 06:07:00,
2013-05-01 01:12:00,66.4,66.0,29.85,East,92,1.0,1.0,99,0.02,,,0.08,meteohub,2013-05-01 06:12:00,
2013-05-01 01:17:00,66.4,66.0,29.85,East,92,0.0,2.0,99,0.01,,,0.08,meteohub,2013-05-01 06:17:00,
2013-05-01 01:22:00,66.4,66.0,29.84,East,92,0.0,2.0,99,0.00,,,0.08,meteohub,2013-05-01 06:22:00,
2013-05-01 01:27:00,66.4,66.0,29.84,East,92,0.0,2.0,99,0.00,,,0.08,meteohub,2013-05-01 06:27:00,
2013-05-01 01:32:00,66.4,66.0,29.84,East,92,0.0,2.0,99,0.00,,,0.08,meteohub,2013-05-01 06:32:00,
2013-05-01 01:37:00,66.4,66.0,29.83,East,79,0.0,2.0,99,0.00,,,0.08,meteohub,2013-05-01 06:37:00,
2013-05-01 01:42:00,66.4,66.0,29.83,ENE,67,2.0,3.0,99,0.00,,,0.08,meteohub,2013-05-01 06:42:00,
2013-05-01 01:47:00,66.4,66.0,29.83,East,99,0.0,3.0,99,0.00,,,0.08,meteohub,2013-05-01 06:47:00,
2013-05-01 01:52:00,66.4,66.0,29.83,SSE,157,1.0,3.0,99,0.00,,,0.08,meteohub,2013-05-01 06:52:00,
2013-05-01 01:57:00,66.4,66.0,29.83,East,91,2.0,3.0,99,0.00,,,0.08,meteohub,2013-05-01 06:57:00,
2013-05-01 02:02:00,66.4,66.0,29.83,ENE,78,0.0,5.0,99,0.00,,,0.08,meteohub,2013-05-01 07:02:00,
2013-05-01 02:07:00,66.4,66.0,29.83,ENE,71,0.0,7.0,99,0.00,,,0.08,meteohub,2013-05-01 07:07:00,
2013-05-01 02:12:00,66.4,66.0,29.83,East,82,1.0,7.0,99,0.00,,,0.08,meteohub,2013-05-01 07:12:00,
2013-05-01 02:17:00,66.4,66.0,29.83,East,82,0.0,7.0,99,0.00,,,0.08,meteohub,2013-05-01 07:17:00,
2013-05-01 02:22:00,66.4,66.0,29.82,ENE,71,0.0,5.0,99,0.00,,,0.08,meteohub,2013-05-01 07:22:00,
2013-05-01 02:27:00,66.4,66.0,29.82,East,84,1.0,4.0,99,0.00,,,0.08,meteohub,2013-05-01 07:27:00,
2013-05-01 02:32:00,66.4,66.0,29.82,East,84,2.0,4.0,99,0.00,,,0.08,meteohub,2013-05-01 07:32:00,
2013-05-01 02:37:00,66.4,66.0,29.82,ENE,74,1.0,2.0,99,0.00,,,0.08,meteohub,2013-05-01 07:37:00,
2013-05-01 02:42:00,66.4,66.0,29.82,ENE,77,1.0,2.0,99,0.00,,,0.08,meteohub,2013-05-01 07:42:00,
2013-05-01 02:47:00,66.4,66.0,29.82,ENE,77,1.0,3.0,99,0.00,,,0.08,meteohub,2013-05-01 07:47:00,
2013-05-01 02:52:00,66.4,66.0,29.82,ENE,77,0.0,3.0,99,0.00,,,0.08,meteohub,2013-05-01 07:52:00,
2013-05-01 02:57:00,66.6,66.2,29.82,ENE,77,0.0,3.0,99,0.00,,,0.08,meteohub,2013-05-01 07:57:00,
2013-05-01 03:02:00,66.6,66.2,29.82,ENE,77,0.0,3.0,99,0.00,,,0.08,meteohub,2013-05-01 08:02:00,
2013-05-01 03:07:00,66.6,66.2,29.82,ENE,77,1.0,3.0,99,0.00,,,0.08,meteohub,2013-05-01 08:07:00,
2013-05-01 03:12:00,66.6,66.2,29.82,ENE,77,0.0,3.0,99,0.00,,,0.08,meteohub,2013-05-01 08:12:00,
2013-05-01 03:17:00,66.6,66.2,29.82,ENE,77,0.0,3.0,99,0.00,,,0.08,meteohub,2013-05-01 08:17:00,
2013-05-01 03:22:00,66.7,66.4,29.82,ENE,77,0.0,3.0,99,0.00,,,0.08,meteohub,2013-05-01 08:22:00,
2013-05-01 03:27:00,66.7,66.4,29.82,ENE,77,1.0,2.0,99,0.00,,,0.08,meteohub,2013-05-01 08:27:00,
2013-05-01 03:32:00,66.7,66.4,29.83,ENE,77,0.0,1.0,99,0.00,,,0.08,meteohub,2013-05-01 08:32:00,
2013-05-01 03:37:00,66.7,66.4,29.83,ENE,77,0.0,1.0,99,0.00,,,0.08,meteohub,2013-05-01 08:37:00,
2013-05-01 03:42:00,66.7,66.4,29.83,ENE,77,0.0,1.0,99,0.00,,,0.08,meteohub,2013-05-01 08:42:00,
2013-05-01 03:47:00,66.7,66.4,29.82,ENE,77,0.0,0.0,99,0.00,,,0.08,meteohub,2013-05-01 08:47:00,
2013-05-01 03:52:00,66.7,66.4,29.82,ENE,77,0.0,0.0,99,0.00,,,0.08,meteohub,2013-05-01 08:52:00,
2013-05-01 03:57:00,66.7,66.4,29.83,ENE,77,0.0,0.0,99,0.00,,,0.08,meteohub,2013-05-01 08:57:00,
2013-05-01 04:02:00,66.7,66.4,29.83,ENE,77,0.0,0.0,99,0.01,,,0.09,meteohub,2013-05-01 09:02:00,
2013-05-01 04:07:00,66.9,66.6,29.83,ENE,77,0.0,1.0,99,0.01,,,0.09,meteohub,2013-05-01 09:07:00,
2013-05-01 04:12:00,66.9,66.6,29.83,ENE,77,0.0,1.0,99,0.01,,,0.09,meteohub,2013-05-01 09:12:00,
2013-05-01 04:17:00,66.9,66.6,29.83,ENE,77,0.0,1.0,99,0.01,,,0.09,meteohub,2013-05-01 09:17:00,
2013-05-01 04:22:00,66.9,66.6,29.83,ENE,77,0.0,1.0,99,0.01,,,0.09,meteohub,2013-05-01 09:22:00,
2013-05-01 04:27:00,66.9,66.6,29.83,ENE,77,0.0,1.0,99,0.01,,,0.09,meteohub,2013-05-01 09:27:00,
2013-05-01 04:32:00,66.9,66.6,29.83,ENE,77,0.0,1.0,99,0.01,,,0.09,meteohub,2013-05-01 09:32:00,
2013-05-01 04:37:00,66.7,66.4,29.84,ENE,77,0.0,2.0,99,0.01,,,0.09,meteohub,2013-05-01 09:37:00,
2013-05-01 04:42:00,66.7,66.4,29.84,ENE,77,0.0,2.0,99,0.01,,,0.09,meteohub,2013-05-01 09:42:00,
2013-05-01 04:47:00,66.7,66.7,29.84,ENE,77,0.0,2.0,100,0.01,,,0.09,meteohub,2013-05-01 09:47:00,
2013-05-01 04:52:00,66.7,66.7,29.84,ENE,77,0.0,1.0,100,0.01,,,0.09,meteohub,2013-05-01 09:52:00,
2013-05-01 04:57:00,66.7,66.7,29.84,ENE,77,0.0,1.0,100,0.00,,,0.09,meteohub,2013-05-01 09:57:00,
2013-05-01 05:02:00,66.7,66.7,29.84,ENE,77,0.0,0.0,100,0.00,,,0.09,meteohub,2013-05-01 10:02:00,
2013-05-01 05:07:00,66.9,66.9,29.84,ENE,70,0.0,4.0,100,0.00,,,0.09,meteohub,2013-05-01 10:07:00,
2013-05-01 05:12:00,66.9,66.9,29.84,ENE,70,0.0,4.0,100,0.00,,,0.09,meteohub,2013-05-01 10:12:00,
2013-05-01 05:17:00,66.9,66.9,29.84,ENE,70,2.0,4.0,100,0.00,,,0.09,meteohub,2013-05-01 10:17:00,
2013-05-01 05:22:00,66.9,66.9,29.84,ENE,70,1.0,2.0,100,0.00,,,0.09,meteohub,2013-05-01 10:22:00,
2013-05-01 05:27:00,66.9,66.9,29.85,ENE,70,1.0,3.0,100,0.00,,,0.09,meteohub,2013-05-01 10:27:00,
2013-05-01 05:32:00,66.9,66.9,29.85,ENE,70,0.0,3.0,100,0.00,,,0.09,meteohub,2013-05-01 10:32:00,
2013-05-01 05:37:00,67.1,67.1,29.85,ENE,70,1.0,2.0,100,0.00,,,0.09,meteohub,2013-05-01 10:37:00,
2013-05-01 05:42:00,66.9,66.9,29.85,ENE,70,0.0,2.0,100,0.00,,,0.09,meteohub,2013-05-01 10:42:00,
2013-05-01 05:47:00,67.1,67.1,29.85,ENE,70,0.0,2.0,100,0.00,,,0.09,meteohub,2013-05-01 10:47:00,
2013-05-01 05:52:00,66.9,66.9,29.85,ENE,70,0.0,2.0,100,0.00,,,0.09,meteohub,2013-05-01 10:52:00,
2013-05-01 05:56:00,67.1,67.1,29.85,ENE,70,0.0,0.0,100,0.00,,,0.09,meteohub,2013-05-01 10:56:00,
2013-05-01 06:02:00,67.1,66.7,29.85,ENE,70,0.0,1.0,99,0.00,,,0.09,meteohub,2013-05-01 11:02:00,
2013-05-01 06:07:00,67.1,67.1,29.85,ENE,70,0.0,1.0,100,0.00,,,0.09,meteohub,2013-05-01 11:07:00,
2013-05-01 06:12:00,67.1,67.1,29.86,ENE,70,0.0,1.0,100,0.00,,,0.09,meteohub,2013-05-01 11:12:00,
2013-05-01 06:17:00,67.3,67.3,29.86,ENE,70,0.0,1.0,100,0.00,,,0.09,meteohub,2013-05-01 11:17:00,
2013-05-01 06:22:00,67.3,67.3,29.86,ENE,70,0.0,2.0,100,0.00,,,0.09,meteohub,2013-05-01 11:22:00,
2013-05-01 06:27:00,67.3,67.3,29.86,ENE,70,0.0,2.0,100,0.00,,,0.09,meteohub,2013-05-01 11:27:00,
2013-05-01 06:32:00,67.3,67.3,29.86,ENE,70,0.0,2.0,100,0.00,,,0.09,meteohub,2013-05-01 11:32:00,
2013-05-01 06:37:00,67.3,67.3,29.86,ENE,70,0.0,1.0,100,0.00,,,0.09,meteohub,2013-05-01 11:37:00,
2013-05-01 06:42:00,67.3,67.3,29.86,ENE,70,0.0,1.0,100,0.00,,,0.09,meteohub,2013-05-01 11:42:00,
2013-05-01 06:47:00,67.3,67.3,29.87,ENE,70,1.0,2.0,100,0.00,,,0.09,meteohub,2013-05-01 11:47:00,
2013-05-01 06:52:00,67.5,67.5,29.87,ENE,70,0.0,2.0,100,0.00,,,0.09,meteohub,2013-05-01 11:52:00,
2013-05-01 06:57:00,67.5,67.5,29.87,ENE,70,0.0,2.0,100,0.00,,,0.09,meteohub,2013-05-01 11:57:00,
2013-05-01 07:02:00,67.5,67.5,29.87,ENE,70,0.0,2.0,100,0.00,,,0.09,meteohub,2013-05-01 12:02:00,
2013-05-01 07:07:00,67.5,67.5,29.87,ENE,70,0.0,3.0,100,0.00,,,0.09,meteohub,2013-05-01 12:07:00,
2013-05-01 07:12:00,67.6,67.6,29.87,ENE,59,2.0,3.0,100,0.00,,,0.09,meteohub,2013-05-01 12:12:00,
2013-05-01 07:17:00,67.6,67.6,29.87,ENE,59,0.0,3.0,100,0.00,,,0.09,meteohub,2013-05-01 12:17:00,
2013-05-01 07:22:00,67.6,67.6,29.87,ENE,59,0.0,3.0,100,0.00,,,0.09,meteohub,2013-05-01 12:22:00,
2013-05-01 07:27:00,67.8,67.8,29.87,ENE,59,0.0,3.0,100,0.00,,,0.09,meteohub,2013-05-01 12:27:00,
2013-05-01 07:32:00,67.8,67.8,29.87,ENE,59,0.0,0.0,100,0.00,,,0.09,meteohub,2013-05-01 12:32:00,
2013-05-01 07:37:00,67.8,67.8,29.87,ENE,65,2.0,2.0,100,0.00,,,0.09,meteohub,2013-05-01 12:37:00,
2013-05-01 07:42:00,67.8,67.8,29.87,ESE,121,1.0,5.0,100,0.00,,,0.09,meteohub,2013-05-01 12:42:00,
2013-05-01 07:47:00,68.0,68.0,29.87,East,80,0.0,5.0,100,0.00,,,0.09,meteohub,2013-05-01 12:47:00,
2013-05-01 07:52:00,68.0,68.0,29.87,East,82,1.0,5.0,100,0.00,,,0.09,meteohub,2013-05-01 12:52:00,
2013-05-01 07:57:00,68.2,68.2,29.87,ESE,115,2.0,5.0,100,0.00,,,0.09,meteohub,2013-05-01 12:57:00,
2013-05-01 08:02:00,68.4,68.4,29.87,East,80,1.0,4.0,100,0.00,,,0.09,meteohub,2013-05-01 13:02:00,
2013-05-01 08:07:00,68.5,68.5,29.87,ENE,76,1.0,3.0,100,0.00,,,0.09,meteohub,2013-05-01 13:07:00,
2013-05-01 08:12:00,68.7,68.7,29.87,ESE,103,2.0,7.0,100,0.00,,,0.09,meteohub,2013-05-01 13:12:00,
2013-05-01 08:17:00,68.7,68.7,29.88,SE,128,1.0,7.0,100,0.00,,,0.09,meteohub,2013-05-01 13:17:00,
2013-05-01 08:22:00,69.1,69.1,29.88,East,85,0.0,7.0,100,0.00,,,0.09,meteohub,2013-05-01 13:22:00,
2013-05-01 08:27:00,69.3,69.3,29.88,ENE,73,2.0,7.0,100,0.00,,,0.09,meteohub,2013-05-01 13:27:00,
2013-05-01 08:32:00,69.3,68.9,29.88,East,92,0.0,4.0,99,0.00,,,0.09,meteohub,2013-05-01 13:32:00,
2013-05-01 08:37:00,69.4,69.1,29.88,East,101,2.0,4.0,99,0.00,,,0.09,meteohub,2013-05-01 13:37:00,
2013-05-01 08:42:00,69.6,69.3,29.88,ENE,61,4.0,5.0,99,0.00,,,0.09,meteohub,2013-05-01 13:42:00,
2013-05-01 08:47:00,70.0,69.6,29.88,East,81,2.0,7.0,99,0.00,,,0.09,meteohub,2013-05-01 13:47:00,
2013-05-01 08:52:00,70.0,69.4,29.88,ENE,67,4.0,7.0,98,0.00,,,0.09,meteohub,2013-05-01 13:52:00,
2013-05-01 08:57:00,70.0,69.4,29.88,SE,143,2.0,7.0,98,0.00,,,0.09,meteohub,2013-05-01 13:57:00,
2013-05-01 09:02:00,70.0,69.4,29.88,ENE,69,3.0,7.0,98,0.00,,,0.09,meteohub,2013-05-01 14:02:00,
2013-05-01 09:07:00,70.0,69.4,29.89,ENE,63,2.0,7.0,98,0.00,,,0.09,meteohub,2013-05-01 14:07:00,
2013-05-01 09:12:00,70.0,69.4,29.89,ENE,63,2.0,7.0,98,0.00,,,0.09,meteohub,2013-05-01 14:12:00,
2013-05-01 09:17:00,70.0,69.4,29.89,ENE,60,1.0,4.0,98,0.00,,,0.09,meteohub,2013-05-01 14:17:00,
2013-05-01 09:22:00,70.0,69.4,29.89,ENE,78,1.0,7.0,98,0.00,,,0.09,meteohub,2013-05-01 14:22:00,
2013-05-01 09:27:00,70.0,69.4,29.89,ENE,70,3.0,7.0,98,0.00,,,0.09,meteohub,2013-05-01 14:27:00,
2013-05-01 09:32:00,70.0,69.4,29.89,ENE,71,0.0,4.0,98,0.00,,,0.09,meteohub,2013-05-01 14:32:00,
2013-05-01 09:37:00,70.0,69.1,29.90,ESE,104,2.0,5.0,97,0.00,,,0.09,meteohub,2013-05-01 14:37:00,
2013-05-01 09:42:00,70.0,69.1,29.90,ENE,66,1.0,6.0,97,0.00,,,0.09,meteohub,2013-05-01 14:42:00,
2013-05-01 09:47:00,70.0,69.1,29.90,ENE,63,2.0,6.0,97,0.00,,,0.09,meteohub,2013-05-01 14:47:00,
2013-05-01 09:52:00,70.0,69.1,29.90,ENE,74,1.0,6.0,97,0.00,,,0.09,meteohub,2013-05-01 14:52:00,
2013-05-01 09:57:00,69.8,68.9,29.90,ENE,74,0.0,4.0,97,0.00,,,0.09,meteohub,2013-05-01 14:57:00,
2013-05-01 10:02:00,70.0,69.4,29.90,ENE,74,0.0,4.0,98,0.00,,,0.09,meteohub,2013-05-01 15:02:00,
2013-05-01 10:07:00,70.0,69.1,29.90,East,95,0.0,2.0,97,0.00,,,0.09,meteohub,2013-05-01 15:07:00,
2013-05-01 10:12:00,70.0,69.1,29.90,ENE,61,1.0,2.0,97,0.00,,,0.09,meteohub,2013-05-01 15:12:00,
2013-05-01 10:17:00,70.2,69.6,29.90,NNE,26,1.0,5.0,98,0.00,,,0.09,meteohub,2013-05-01 15:17:00,
2013-05-01 10:22:00,70.3,69.8,29.90,ENE,78,3.0,5.0,98,0.00,,,0.09,meteohub,2013-05-01 15:22:00,
2013-05-01 10:27:00,70.5,69.6,29.90,ENE,72,0.0,5.0,97,0.00,,,0.09,meteohub,2013-05-01 15:27:00,
2013-05-01 10:32:00,71.2,70.7,29.90,ENE,66,3.0,5.0,98,0.00,,,0.09,meteohub,2013-05-01 15:32:00,
2013-05-01 10:37:00,72.1,70.7,29.90,NE,46,4.0,8.0,95,0.00,,,0.09,meteohub,2013-05-01 15:37:00,
2013-05-01 10:42:00,72.7,70.5,29.90,ENE,76,1.0,9.0,93,0.00,,,0.09,meteohub,2013-05-01 15:42:00,
2013-05-01 10:47:00,72.9,70.7,29.90,ENE,60,7.0,9.0,93,0.00,,,0.09,meteohub,2013-05-01 15:47:00,
2013-05-01 10:52:00,72.9,70.3,29.89,East,81,8.0,12.0,92,0.00,,,0.09,meteohub,2013-05-01 15:52:00,
2013-05-01 10:57:00,73.4,70.5,29.89,ENE,57,9.0,12.0,91,0.00,,,0.09,meteohub,2013-05-01 15:57:00,
2013-05-01 11:02:00,73.8,70.7,29.89,NE,46,2.0,11.0,90,0.00,,,0.09,meteohub,2013-05-01 16:02:00,
2013-05-01 11:07:00,73.9,71.1,29.89,ENE,76,3.0,11.0,91,0.00,,,0.09,meteohub,2013-05-01 16:07:00,
2013-05-01 11:12:00,73.9,70.5,29.89,ENE,74,1.0,11.0,89,0.00,,,0.09,meteohub,2013-05-01 16:12:00,
2013-05-01 11:17:00,74.1,71.1,29.89,ENE,59,1.0,10.0,90,0.00,,,0.09,meteohub,2013-05-01 16:17:00,
2013-05-01 11:22:00,74.1,71.1,29.89,WSW,257,0.0,5.0,90,0.00,,,0.09,meteohub,2013-05-01 16:22:00,
2013-05-01 11:27:00,74.5,71.4,29.90,SSW,203,2.0,4.0,90,0.00,,,0.09,meteohub,2013-05-01 16:27:00,
2013-05-01 11:32:00,74.7,71.2,29.89,ESE,120,2.0,3.0,89,0.00,,,0.09,meteohub,2013-05-01 16:32:00,
2013-05-01 11:37:00,74.3,70.9,29.90,ESE,120,0.0,3.0,89,0.00,,,0.09,meteohub,2013-05-01 16:37:00,
2013-05-01 11:42:00,73.9,70.5,29.90,ESE,120,0.0,2.0,89,0.00,,,0.09,meteohub,2013-05-01 16:42:00,
2013-05-01 11:47:00,73.8,70.7,29.90,ESE,123,2.0,2.0,90,0.00,,,0.09,meteohub,2013-05-01 16:47:00,
2013-05-01 11:52:00,73.6,70.5,29.89,ESE,123,0.0,2.0,90,0.00,,,0.09,meteohub,2013-05-01 16:52:00,
2013-05-01 11:57:00,73.2,70.5,29.89,West,267,1.0,2.0,91,0.00,,,0.09,meteohub,2013-05-01 16:57:00,
2013-05-01 12:02:00,73.0,70.3,29.90,SW,227,4.0,4.0,91,0.00,,,0.09,meteohub,2013-05-01 17:02:00,
2013-05-01 12:07:00,72.1,69.4,29.89,SW,222,0.0,8.0,91,0.00,,,0.09,meteohub,2013-05-01 17:07:00,
2013-05-01 12:12:00,71.2,68.2,29.89,SSW,196,0.0,8.0,90,0.00,,,0.09,meteohub,2013-05-01 17:12:00,
2013-05-01 12:17:00,70.7,68.0,29.89,SW,231,3.0,8.0,91,0.00,,,0.09,meteohub,2013-05-01 17:17:00,
2013-05-01 12:22:00,70.2,67.6,29.89,SSW,211,3.0,7.0,92,0.00,,,0.09,meteohub,2013-05-01 17:22:00,
2013-05-01 12:27:00,69.8,67.6,29.88,SSW,211,2.0,5.0,93,0.00,,,0.09,meteohub,2013-05-01 17:27:00,
2013-05-01 12:32:00,69.6,67.8,29.88,SSW,211,2.0,5.0,94,0.00,,,0.09,meteohub,2013-05-01 17:32:00,
2013-05-01 12:37:00,69.8,68.4,29.88,WSW,254,2.0,4.0,95,0.00,,,0.09,meteohub,2013-05-01 17:37:00,
2013-05-01 12:42:00,70.3,69.1,29.88,West,259,3.0,4.0,96,0.00,,,0.09,meteohub,2013-05-01 17:42:00,
2013-05-01 12:47:00,70.9,69.4,29.87,SW,229,1.0,4.0,95,0.00,,,0.09,meteohub,2013-05-01 17:47:00,
2013-05-01 12:52:00,71.2,69.4,29.87,West,262,4.0,6.0,94,0.00,,,0.09,meteohub,2013-05-01 17:52:00,
2013-05-01 12:57:00,71.6,69.8,29.86,West,269,4.0,6.0,94,0.00,,,0.09,meteohub,2013-05-01 17:57:00,
2013-05-01 13:02:00,71.8,70.0,29.86,WSW,248,1.0,6.0,94,0.00,,,0.09,meteohub,2013-05-01 18:02:00,
2013-05-01 13:07:00,72.1,70.0,29.85,WSW,248,2.0,5.0,93,0.00,,,0.09,meteohub,2013-05-01 18:07:00,
2013-05-01 13:12:00,72.3,69.8,29.85,WSW,248,2.0,5.0,92,0.00,,,0.09,meteohub,2013-05-01 18:12:00,
2013-05-01 13:17:00,72.3,70.2,29.85,West,280,2.0,6.0,93,0.00,,,0.09,meteohub,2013-05-01 18:17:00,
2013-05-01 13:22:00,72.7,70.5,29.86,West,278,0.0,6.0,93,0.00,,,0.09,meteohub,2013-05-01 18:22:00,
2013-05-01 13:27:00,72.9,69.4,29.86,West,278,2.0,6.0,89,0.00,,,0.09,meteohub,2013-05-01 18:27:00,
2013-05-01 13:32:00,73.4,69.3,29.86,West,278,2.0,4.0,87,0.00,,,0.09,meteohub,2013-05-01 18:32:00,
2013-05-01 13:37:00,73.8,68.9,29.87,West,279,2.0,4.0,85,0.00,,,0.09,meteohub,2013-05-01 18:37:00,
2013-05-01 13:42:00,74.7,69.1,29.86,North,5,4.0,4.0,83,0.00,,,0.09,meteohub,2013-05-01 18:42:00,
2013-05-01 13:47:00,75.4,69.8,29.86,NW,320,2.0,4.0,83,0.00,,,0.09,meteohub,2013-05-01 18:47:00,
2013-05-01 13:52:00,75.7,70.2,29.86,SW,234,0.0,4.0,83,0.00,,,0.09,meteohub,2013-05-01 18:52:00,
2013-05-01 13:57:00,76.1,70.5,29.86,SE,135,1.0,4.0,83,0.00,,,0.09,meteohub,2013-05-01 18:57:00,
2013-05-01 14:02:00,76.1,70.5,29.86,ENE,72,0.0,3.0,83,0.00,,,0.09,meteohub,2013-05-01 19:02:00,
2013-05-01 14:07:00,76.3,71.4,29.86,ENE,77,0.0,4.0,85,0.00,,,0.09,meteohub,2013-05-01 19:07:00,
2013-05-01 14:12:00,76.3,71.1,29.86,ENE,63,2.0,4.0,84,0.00,,,0.09,meteohub,2013-05-01 19:12:00,
2013-05-01 14:17:00,76.6,71.4,29.86,ENE,69,1.0,4.0,84,0.00,,,0.09,meteohub,2013-05-01 19:17:00,
2013-05-01 14:22:00,77.5,72.0,29.85,South,184,1.0,5.0,83,0.00,,,0.09,meteohub,2013-05-01 19:22:00,
2013-05-01 14:27:00,79.0,72.0,29.85,West,261,1.0,5.0,79,0.00,,,0.09,meteohub,2013-05-01 19:27:00,
2013-05-01 14:32:00,79.3,71.4,29.86,East,93,2.0,5.0,77,0.00,,,0.09,meteohub,2013-05-01 19:32:00,
2013-05-01 14:37:00,79.0,71.6,29.86,ENE,65,3.0,7.0,78,0.00,,,0.09,meteohub,2013-05-01 19:37:00,
2013-05-01 14:42:00,78.8,70.5,29.86,ENE,68,3.0,7.0,76,0.00,,,0.09,meteohub,2013-05-01 19:42:00,
2013-05-01 14:47:00,78.6,70.9,29.85,ENE,78,3.0,7.0,77,0.00,,,0.09,meteohub,2013-05-01 19:47:00,
2013-05-01 14:52:00,78.4,69.4,29.85,East,101,9.0,9.0,74,0.00,,,0.09,meteohub,2013-05-01 19:52:00,
2013-05-01 14:57:00,76.8,68.7,29.85,East,80,9.0,18.0,76,0.00,,,0.09,meteohub,2013-05-01 19:57:00,
2013-05-01 15:02:00,75.7,68.0,29.85,ENE,71,3.0,18.0,77,0.00,,,0.09,meteohub,2013-05-01 20:02:00,
2013-05-01 15:07:00,75.4,68.4,29.85,ESE,121,4.0,15.0,79,0.00,,,0.09,meteohub,2013-05-01 20:07:00,
2013-05-01 15:12:00,75.0,68.4,29.85,ENE,65,8.0,12.0,80,0.00,,,0.09,meteohub,2013-05-01 20:12:00,
2013-05-01 15:17:00,75.0,69.1,29.85,ESE,109,1.0,8.0,82,0.00,,,0.09,meteohub,2013-05-01 20:17:00,
2013-05-01 15:22:00,74.8,68.5,29.84,ESE,111,1.0,8.0,81,0.00,,,0.09,meteohub,2013-05-01 20:22:00,
2013-05-01 15:27:00,74.8,69.3,29.84,SSE,157,2.0,8.0,83,0.00,,,0.09,meteohub,2013-05-01 20:27:00,
2013-05-01 15:32:00,74.8,68.9,29.83,SE,134,2.0,8.0,82,0.00,,,0.09,meteohub,2013-05-01 20:32:00,
2013-05-01 15:37:00,74.7,69.1,29.83,ESE,123,2.0,6.0,83,0.00,,,0.09,meteohub,2013-05-01 20:37:00,
2013-05-01 15:42:00,74.7,69.1,29.82,SE,134,0.0,6.0,83,0.00,,,0.09,meteohub,2013-05-01 20:42:00,
2013-05-01 15:47:00,74.5,68.5,29.82,ENE,78,1.0,4.0,82,0.00,,,0.09,meteohub,2013-05-01 20:47:00,
2013-05-01 15:52:00,74.1,68.5,29.81,SSE,165,2.0,6.0,83,0.00,,,0.09,meteohub,2013-05-01 20:52:00,
2013-05-01 15:57:00,74.1,68.9,29.82,SSW,209,0.0,6.0,84,0.00,,,0.09,meteohub,2013-05-01 20:57:00,
2013-05-01 16:02:00,74.5,69.3,29.81,SSW,209,0.0,3.0,84,0.00,,,0.09,meteohub,2013-05-01 21:02:00,
2013-05-01 16:07:00,74.5,68.9,29.82,SSW,209,0.0,3.0,83,0.00,,,0.09,meteohub,2013-05-01 21:07:00,
2013-05-01 16:12:00,74.7,69.1,29.81,SSW,209,0.0,3.0,83,0.00,,,0.09,meteohub,2013-05-01 21:12:00,
2013-05-01 16:17:00,74.8,69.6,29.81,SSW,209,0.0,3.0,84,0.00,,,0.09,meteohub,2013-05-01 21:17:00,
2013-05-01 16:22:00,75.0,69.8,29.82,SSW,209,0.0,3.0,84,0.00,,,0.09,meteohub,2013-05-01 21:22:00,
2013-05-01 16:27:00,75.0,69.1,29.82,SSW,209,0.0,0.0,82,0.00,,,0.09,meteohub,2013-05-01 21:27:00,
2013-05-01 16:32:00,75.4,69.8,29.82,SSW,209,0.0,1.0,83,0.00,,,0.09,meteohub,2013-05-01 21:32:00,
2013-05-01 16:37:00,75.6,69.6,29.83,SSW,209,0.0,1.0,82,0.00,,,0.09,meteohub,2013-05-01 21:37:00,
2013-05-01 16:42:00,75.6,69.6,29.83,SSW,209,0.0,1.0,82,0.00,,,0.09,meteohub,2013-05-01 21:42:00,
2013-05-01 16:47:00,75.6,69.6,29.83,SSW,209,0.0,1.0,82,0.00,,,0.09,meteohub,2013-05-01 21:47:00,
2013-05-01 16:52:00,75.4,69.4,29.83,SSW,209,2.0,2.0,82,0.00,,,0.09,meteohub,2013-05-01 21:52:00,
2013-05-01 16:57:00,75.0,68.7,29.83,ENE,65,3.0,3.0,81,0.00,,,0.09,meteohub,2013-05-01 21:57:00,
2013-05-01 17:02:00,74.7,69.4,29.84,ENE,71,0.0,4.0,84,0.00,,,0.09,meteohub,2013-05-01 22:02:00,
2013-05-01 17:07:00,74.5,69.3,29.84,ENE,71,0.0,4.0,84,0.00,,,0.09,meteohub,2013-05-01 22:07:00,
2013-05-01 17:12:00,74.5,68.9,29.85,ENE,71,1.0,4.0,83,0.00,,,0.09,meteohub,2013-05-01 22:12:00,
2013-05-01 17:17:00,74.3,68.7,29.84,ENE,71,2.0,3.0,83,0.00,,,0.09,meteohub,2013-05-01 22:17:00,
2013-05-01 17:22:00,74.1,68.5,29.84,ENE,67,0.0,3.0,83,0.00,,,0.09,meteohub,2013-05-01 22:22:00,
2013-05-01 17:27:00,74.1,68.9,29.85,ENE,67,0.0,3.0,84,0.00,,,0.09,meteohub,2013-05-01 22:27:00,
2013-05-01 17:32:00,74.3,69.1,29.85,ENE,67,1.0,3.0,84,0.00,,,0.09,meteohub,2013-05-01 22:32:00,
2013-05-01 17:37:00,74.3,69.1,29.85,ENE,67,0.0,2.0,84,0.00,,,0.09,meteohub,2013-05-01 22:37:00,
2013-05-01 17:42:00,74.3,69.1,29.85,ENE,67,0.0,2.0,84,0.00,,,0.09,meteohub,2013-05-01 22:42:00,
2013-05-01 17:47:00,74.3,69.1,29.84,ENE,67,0.0,2.0,84,0.00,,,0.09,meteohub,2013-05-01 22:47:00,
2013-05-01 17:52:00,74.3,69.1,29.84,East,96,0.0,2.0,84,0.00,,,0.09,meteohub,2013-05-01 22:52:00,
2013-05-01 17:57:00,74.3,69.1,29.84,East,96,0.0,2.0,84,0.00,,,0.09,meteohub,2013-05-01 22:57:00,
2013-05-01 18:02:00,74.5,69.3,29.84,East,96,0.0,2.0,84,0.00,,,0.09,meteohub,2013-05-01 23:02:00,
2013-05-01 18:07:00,74.5,69.3,29.85,East,96,0.0,1.0,84,0.00,,,0.09,meteohub,2013-05-01 23:07:00,
2013-05-01 18:12:00,74.5,69.3,29.85,East,96,0.0,0.0,84,0.00,,,0.09,meteohub,2013-05-01 23:12:00,
2013-05-01 18:17:00,74.5,69.6,29.85,East,96,0.0,0.0,85,0.00,,,0.09,meteohub,2013-05-01 23:17:00,
2013-05-01 18:22:00,74.5,70.0,29.85,East,96,0.0,0.0,86,0.00,,,0.09,meteohub,2013-05-01 23:22:00,
2013-05-01 18:27:00,74.1,70.0,29.85,East,96,0.0,0.0,87,0.00,,,0.09,meteohub,2013-05-01 23:27:00,
2013-05-01 18:32:00,73.9,69.8,29.85,East,96,0.0,0.0,87,0.00,,,0.09,meteohub,2013-05-01 23:32:00,
2013-05-01 18:37:00,73.8,70.0,29.85,East,96,0.0,0.0,88,0.00,,,0.09,meteohub,2013-05-01 23:37:00,
2013-05-01 18:42:00,73.8,70.3,29.85,East,96,0.0,0.0,89,0.00,,,0.09,meteohub,2013-05-01 23:42:00,
2013-05-01 18:47:00,73.8,70.3,29.85,East,96,0.0,0.0,89,0.00,,,0.09,meteohub,2013-05-01 23:47:00,
2013-05-01 18:52:00,73.6,70.2,29.85,East,96,0.0,0.0,89,0.00,,,0.09,meteohub,2013-05-01 23:52:00,
2013-05-01 18:57:00,73.6,70.5,29.85,East,96,0.0,0.0,90,0.00,,,0.09,meteohub,2013-05-01 23:57:00,
2013-05-01 19:02:00,73.6,70.5,29.85,East,96,0.0,0.0,90,0.00,,,0.09,meteohub,2013-05-02 00:02:00,
2013-05-01 19:07:00,73.8,70.3,29.85,East,96,0.0,1.0,89,0.00,,,0.09,meteohub,2013-05-02 00:07:00,
2013-05-01 19:12:00,73.8,70.3,29.85,East,96,0.0,1.0,89,0.00,,,0.09,meteohub,2013-05-02 00:12:00,
2013-05-01 19:17:00,73.6,70.2,29.85,East,89,2.0,2.0,89,0.00,,,0.09,meteohub,2013-05-02 00:17:00,
2013-05-01 19:22:00,73.2,69.8,29.85,East,90,1.0,2.0,89,0.00,,,0.09,meteohub,2013-05-02 00:22:00,
2013-05-01 19:27:00,73.0,69.6,29.85,East,87,0.0,2.0,89,0.00,,,0.09,meteohub,2013-05-02 00:27:00,
2013-05-01 19:32:00,72.9,69.1,29.85,ENE,77,1.0,6.0,88,0.00,,,0.09,meteohub,2013-05-02 00:32:00,
2013-05-01 19:37:00,72.7,68.2,29.86,NW,311,2.0,6.0,86,0.00,,,0.09,meteohub,2013-05-02 00:37:00,
2013-05-01 19:42:00,72.3,67.3,29.86,North,355,1.0,7.0,84,0.00,,,0.09,meteohub,2013-05-02 00:42:00,
2013-05-01 19:47:00,72.1,67.5,29.86,East,86,2.0,7.0,85,0.00,,,0.09,meteohub,2013-05-02 00:47:00,
2013-05-01 19:52:00,72.0,65.8,29.87,East,95,3.0,7.0,81,0.00,,,0.09,meteohub,2013-05-02 00:52:00,
2013-05-01 19:57:00,71.8,65.7,29.87,NE,46,0.0,5.0,81,0.00,,,0.09,meteohub,2013-05-02 00:57:00,
2013-05-01 20:02:00,71.4,66.0,29.86,NE,46,0.0,4.0,83,0.01,,,0.10,meteohub,2013-05-02 01:02:00,
2013-05-01 20:07:00,71.1,66.0,29.86,NE,44,0.0,4.0,84,0.01,,,0.10,meteohub,2013-05-02 01:07:00,
2013-05-01 20:12:00,70.5,65.8,29.87,NE,44,0.0,3.0,85,0.01,,,0.10,meteohub,2013-05-02 01:12:00,
2013-05-01 20:17:00,70.2,66.0,29.87,NE,44,0.0,1.0,87,0.01,,,0.10,meteohub,2013-05-02 01:17:00,
2013-05-01 20:22:00,69.8,66.0,29.87,NE,49,0.0,1.0,88,0.01,,,0.10,meteohub,2013-05-02 01:22:00,
2013-05-01 20:27:00,69.4,65.5,29.87,North,5,0.0,4.0,87,0.01,,,0.10,meteohub,2013-05-02 01:27:00,
2013-05-01 20:32:00,69.3,65.3,29.87,North,355,0.0,4.0,87,0.01,,,0.10,meteohub,2013-05-02 01:32:00,
2013-05-01 20:37:00,69.1,65.3,29.87,East,101,0.0,4.0,88,0.01,,,0.10,meteohub,2013-05-02 01:37:00,
2013-05-01 20:42:00,68.7,65.3,29.87,East,88,0.0,3.0,89,0.01,,,0.10,meteohub,2013-05-02 01:42:00,
2013-05-01 20:47:00,68.7,65.3,29.88,ENE,67,1.0,3.0,89,0.01,,,0.10,meteohub,2013-05-02 01:47:00,
2013-05-01 20:52:00,68.7,65.3,29.88,ENE,66,0.0,4.0,89,0.01,,,0.10,meteohub,2013-05-02 01:52:00,
2013-05-01 20:57:00,68.7,65.7,29.88,ENE,67,0.0,4.0,90,0.01,,,0.10,meteohub,2013-05-02 01:57:00,
2013-05-01 21:02:00,68.5,65.5,29.88,ENE,62,1.0,4.0,90,0.00,,,0.10,meteohub,2013-05-02 02:02:00,
2013-05-01 21:07:00,68.5,65.8,29.88,East,90,0.0,3.0,91,0.00,,,0.10,meteohub,2013-05-02 02:07:00,
2013-05-01 21:12:00,68.4,66.0,29.88,East,90,0.0,3.0,92,0.00,,,0.10,meteohub,2013-05-02 02:12:00,
2013-05-01 21:17:00,68.4,66.0,29.89,NNW,346,0.0,3.0,92,0.00,,,0.10,meteohub,2013-05-02 02:17:00,
2013-05-01 21:22:00,68.4,66.2,29.89,North,355,0.0,3.0,93,0.00,,,0.10,meteohub,2013-05-02 02:22:00,
2013-05-01 21:27:00,68.4,66.2,29.89,North,355,0.0,5.0,93,0.00,,,0.10,meteohub,2013-05-02 02:27:00,
2013-05-01 21:32:00,68.4,66.2,29.89,NE,34,0.0,5.0,93,0.00,,,0.10,meteohub,2013-05-02 02:32:00,
2013-05-01 21:37:00,68.4,66.2,29.90,NE,34,0.0,4.0,93,0.00,,,0.10,meteohub,2013-05-02 02:37:00,
2013-05-01 21:42:00,68.2,66.4,29.90,North,5,0.0,4.0,94,0.00,,,0.10,meteohub,2013-05-02 02:42:00,
2013-05-01 21:47:00,68.2,66.4,29.90,North,5,0.0,4.0,94,0.00,,,0.10,meteohub,2013-05-02 02:47:00,
2013-05-01 21:52:00,68.0,66.2,29.90,North,5,0.0,2.0,94,0.00,,,0.10,meteohub,2013-05-02 02:52:00,
2013-05-01 21:57:00,67.8,66.0,29.90,North,5,0.0,2.0,94,0.00,,,0.10,meteohub,2013-05-02 02:57:00,
2013-05-01 22:02:00,67.8,66.4,29.90,North,5,0.0,2.0,95,0.00,,,0.10,meteohub,2013-05-02 03:02:00,
2013-05-01 22:07:00,67.8,66.4,29.90,North,5,2.0,2.0,95,0.00,,,0.10,meteohub,2013-05-02 03:07:00,
2013-05-01 22:12:00,68.0,66.6,29.91,WSW,246,1.0,2.0,95,0.00,,,0.10,meteohub,2013-05-02 03:12:00,
2013-05-01 22:17:00,68.0,66.6,29.90,WSW,246,2.0,3.0,95,0.00,,,0.10,meteohub,2013-05-02 03:17:00,
2013-05-01 22:22:00,68.0,66.6,29.90,ENE,77,0.0,3.0,95,0.00,,,0.10,meteohub,2013-05-02 03:22:00,
2013-05-01 22:27:00,67.8,66.4,29.89,ENE,71,3.0,3.0,95,0.00,,,0.10,meteohub,2013-05-02 03:27:00,
2013-05-01 22:32:00,67.8,66.6,29.89,ESE,111,3.0,7.0,96,0.00,,,0.10,meteohub,2013-05-02 03:32:00,
2013-05-01 22:37:00,67.6,66.4,29.89,East,91,2.0,8.0,96,0.00,,,0.10,meteohub,2013-05-02 03:37:00,
2013-05-01 22:42:00,67.6,66.4,29.89,East,90,3.0,8.0,96,0.00,,,0.10,meteohub,2013-05-02 03:42:00,
2013-05-01 22:47:00,67.6,66.4,29.89,ESE,112,2.0,8.0,96,0.00,,,0.10,meteohub,2013-05-02 03:47:00,
2013-05-01 22:52:00,67.6,66.4,29.88,ENE,70,3.0,8.0,96,0.00,,,0.10,meteohub,2013-05-02 03:52:00,
2013-05-01 22:57:00,67.6,66.4,29.88,ENE,63,3.0,8.0,96,0.00,,,0.10,meteohub,2013-05-02 03:57:00,
2013-05-01 23:01:00,67.6,66.2,29.88,ENE,65,7.0,9.0,95,0.00,,,0.10,meteohub,2013-05-02 04:01:00,
2013-05-01 23:02:00,67.6,66.2,29.88,ENE,76,2.0,9.0,95,0.00,,,0.10,meteohub,2013-05-02 04:02:00,
2013-05-01 23:07:00,67.6,66.2,29.88,ENE,67,2.0,9.0,95,0.00,,,0.10,meteohub,2013-05-02 04:07:00,
2013-05-01 23:12:00,67.6,66.2,29.89,ENE,61,5.0,9.0,95,0.00,,,0.10,meteohub,2013-05-02 04:12:00,
2013-05-01 23:17:00,67.6,66.2,29.89,ENE,71,2.0,11.0,95,0.00,,,0.10,meteohub,2013-05-02 04:17:00,
2013-05-01 23:22:00,67.6,66.2,29.89,ENE,68,1.0,11.0,95,0.00,,,0.10,meteohub,2013-05-02 04:22:00,
2013-05-01 23:27:00,67.6,66.2,29.89,ENE,74,3.0,11.0,95,0.00,,,0.10,meteohub,2013-05-02 04:27:00,
2013-05-01 23:32:00,67.6,65.8,29.89,ENE,74,1.0,7.0,94,0.00,,,0.10,meteohub,2013-05-02 04:32:00,
2013-05-01 23:37:00,67.6,65.8,29.88,East,97,3.0,7.0,94,0.00,,,0.10,meteohub,2013-05-02 04:37:00,
2013-05-01 23:42:00,67.6,65.8,29.88,NE,44,4.0,7.0,94,0.00,,,0.10,meteohub,2013-05-02 04:42:00,
2013-05-01 23:47:00,67.6,65.8,29.88,ENE,73,3.0,6.0,94,0.00,,,0.10,meteohub,2013-05-02 04:47:00,
2013-05-01 23:52:00,67.6,65.8,29.88,ENE,59,4.0,6.0,94,0.00,,,0.10,meteohub,2013-05-02 04:52:00,
2013-05-01 23:57:00,67.6,65.8,29.88,ENE,70,3.0,6.0,94,0.00,,,0.10,meteohub,2013-05-02 04:57:00,